Clermont County (I69)

 

Airport Diagram
No Airport Diagram Available
Current Weather/Forecast (VFR Conditions)
METAR KI69 071335Z AUTO 34005KT 10SM SCT013 08/05 A3006 RMK AO2 T00820047
TAF

Airport Information

All Charts
General
Chart Name View
TAKEOFF MINIMUMS
ALTERNATE MINIMUMS

Arrivals
Chart Name Download
BRUSH FOUR
BRUSH FOUR, CONT.1
CINCE NINE
HARDU FIVE
HARDU FIVE, CONT.1
HEDEE FOUR
HEDEE FOUR, CONT.1
SHELBYVILLE SIX
SHELBYVILLE SIX, CONT.1

Approaches
Chart Name Download
RNAV (GPS) RWY 04
RNAV (GPS) RWY 22
VOR-B


Airport Statistics
Departures Arrivals Local
All Collected Stats since June 2016: 20 7 1
2021 Stats: 5 2 0
May Stats: 0 0 0

Inbound Traffic (Arrivals) - 0

No inbound traffic.


Outbound Traffic (Departures) - 0

No outbound traffic.


Local Traffic (Pattern) - 0

No local traffic.